Huntington, WV

11:59 PM EST on December 09, 2019 (GMT -0500)
Tri-State / Ferguson

Weather History for KHTS - October, 2019

Change the Weather History Date:

Tuesday, October 8, 2019

  Actual Average Record
Temperature  
Mean Temperature 59 °F 59 °F  
Max Temperature 67 °F 71 °F 93 °F (2007)
Min Temperature 50 °F 47 °F 29 °F (2000)
Degree Days  
Heating Degree Days 6 7  
Month to date heating degree days 12 48  
Since 1 July heating degree days 12 106  
Cooling Degree Days 0 1  
Month to date cooling degree days 59 10  
Year to date cooling degree days 1504 1121  
Growing Degree Days 8 (Base 50)    
Moisture  
Dew Point 53 °F    
Average Humidity 80    
Maximum Humidity 96    
Minimum Humidity 63    
Precipitation  
Precipitation 0.00 in 0.09 in 2.26 in (2017)
Month to date precipitation 2.78 0.70  
Year to date precipitation 37.25 33.73  
Snow  
Snow 0.00 in 0.00 in 0.00 in (2016)
Month to date snowfall 0.0 0.0  
Since 1 September snowfall 0.0 0.0  
Snow Depth 0.00 in    
Sea Level Pressure  
Sea Level Pressure 30.17 in    
Wind  
Wind Speed 5 mph (NE)    
Max Wind Speed 15 mph    
Max Gust Speed 19 mph    
Visibility 10 miles    
Events      
T = Trace of Precipitation, MM = Missing Value Source: NWS Daily Summary

Daily Weather History Graph

Daily Weather History Graph

Search for Another Location

Airport or City:

Astronomy

Oct. 08, 2019 Rise Set
Actual Time 7:32 AM EDT 7:02 PM EDT
Civil Twilight 7:05 AM EDT 7:29 PM EDT
Nautical Twilight 6:35 AM EDT 7:59 PM EDT
Astronomical Twilight 6:04 AM EDT 8:30 PM EDT
Moon 4:56 PM EDT (10/8) 2:25 AM EDT (10/8)
Length of Visible Light 12h 23m
Length of Day
11h 30m
Waxing Gibbous, 77% of the Moon is Illuminated
Oct 8
Waxing Gibbous
Oct 13
Full
Oct 21
Last Quarter
Oct 27
New
Nov 4
First Quarter

Hourly Weather History & Observations

Time (EDT) Temp. Dew Point Humidity Pressure Visibility Wind Dir Wind Speed Gust Speed Precip Events Conditions
12:51 AM 55.0 °F 51.1 °F 86% 30.21 in 10.0 mi North 5.8 mph - N/A   Overcast
1:51 AM 54.0 °F 51.1 °F 90% 30.20 in 10.0 mi NNE 3.5 mph - N/A   Clear
2:51 AM 53.1 °F 51.1 °F 93% 30.19 in 10.0 mi NNE 5.8 mph - N/A   Clear
3:51 AM 53.1 °F 50.0 °F 89% 30.18 in 10.0 mi NE 3.5 mph - N/A   Clear
4:51 AM 53.1 °F 50.0 °F 89% 30.19 in 10.0 mi Calm Calm - N/A   Clear
5:51 AM 53.1 °F 50.0 °F 89% 30.19 in 10.0 mi North 5.8 mph - N/A   Clear
6:51 AM 52.0 °F 50.0 °F 93% 30.20 in 10.0 mi North 3.5 mph - N/A   Clear
7:51 AM 50.0 °F 48.9 °F 96% 30.20 in 10.0 mi Calm Calm - N/A   Clear
8:51 AM 53.1 °F 50.0 °F 89% 30.20 in 10.0 mi NNE 8.1 mph - N/A   Clear
9:51 AM 55.9 °F 50.0 °F 80% 30.21 in 10.0 mi NE 8.1 mph - N/A   Partly Cloudy
10:51 AM 60.1 °F 51.1 °F 72% 30.21 in 10.0 mi NNE 8.1 mph - N/A   Scattered Clouds
11:51 AM 62.1 °F 51.1 °F 67% 30.19 in 10.0 mi ENE 6.9 mph - N/A   Partly Cloudy
12:51 PM 64.9 °F 52.0 °F 63% 30.18 in 10.0 mi North - - N/A   Scattered Clouds
1:04 PM 66.9 °F 53.1 °F 61% 30.18 in 10.0 mi Variable 6.9 mph 17.3 mph N/A   Scattered Clouds
1:51 PM 66.9 °F 53.1 °F 61% 30.16 in 10.0 mi NNE 8.1 mph - N/A   Scattered Clouds
2:51 PM 66.0 °F 53.1 °F 63% 30.14 in 10.0 mi ENE 8.1 mph - N/A   Overcast
3:10 PM 66.0 °F 53.1 °F 63% 30.15 in 10.0 mi ENE 8.1 mph - N/A   Overcast
3:51 PM 64.9 °F 54.0 °F 68% 30.14 in 10.0 mi ENE 5.8 mph - N/A   Overcast
4:51 PM 64.9 °F 54.0 °F 68% 30.14 in 10.0 mi ENE 5.8 mph - N/A   Overcast
5:51 PM 64.0 °F 54.0 °F 70% 30.14 in 10.0 mi ENE 4.6 mph - N/A   Overcast
6:51 PM 63.0 °F 55.0 °F 75% 30.15 in 10.0 mi ESE 3.5 mph - N/A   Overcast
7:51 PM 62.1 °F 55.0 °F 78% 30.16 in 10.0 mi Variable 5.8 mph - N/A   Overcast
8:51 PM 61.0 °F 55.9 °F 83% 30.16 in 10.0 mi East 5.8 mph - N/A   Overcast
9:51 PM 61.0 °F 55.9 °F 83% 30.17 in 10.0 mi NE 5.8 mph - N/A   Overcast
10:51 PM 60.1 °F 55.9 °F 86% 30.16 in 10.0 mi ENE 5.8 mph - N/A   Overcast
11:51 PM 60.1 °F 55.9 °F 86% 30.15 in 10.0 mi East 5.8 mph - N/A   Overcast